Location: Darmstadt
(49.8706°N, 8.6494°E)
Time: 07:31:41
(UTC+01:00)

ERBS - Pass Details

Date: 31 October 2020
Orbit: 406 x 422 km, 57.0° (Epoch: 02 December)

Event Time Altitude Azimuth Distance (km) Brightness Sun altitude
Rises 17:40:51 0° 295° (WNW) 2,366 7.0 -6.5°
Reaches altitude 10° 17:43:12 10° 309° (NW) 1,506 5.6 -6.9°
Maximum altitude 17:46:01 24° 6° (N) 916 3.8 -7.3°
Drops below altitude 10° 17:48:51 10° 63° (ENE) 1,513 4.4 -7.8°
Enters shadow 17:48:53 10° 64° (ENE) 1,521 4.4 -7.8°
